Vorticity
7 8 9 5 -0 13 4 4 5 7 -9 -1 12 14 10 2 6 9 6 6 3 4 4 5 5 5 3 1 4 15 14 9 5 5 6 6 5 3 -0 4 4 4 5 6 6 6 6 5 5
8 10 4 2 5 3 -1 8 7 5 -5 1 6 4 -3 0 5 -3 8 2 6 7 6 7 6 5 5 5 4 4 3 16 10 4 4 5 6 5 2 1 4 3 3 6 5 6 7 5 5
7 7 8 5 10 2 5 3 4 4 5 9 8 0 6 7 1 3 4 5 5 5 6 6 8 11 13 10 5 4 4 4 9 15 5 4 6 6 6 2 3 2 3 3 6 6 7 6 6
6 6 13 21 13 9 10 -1 -1 -4 -3 5 2 6 3 4 3 3 4 6 6 6 7 9 8 6 7 10 13 12 7 6 5 0 24 6 4 6 7 5 2 4 2 3 3 4 7 7 6
8 6 16 18 11 8 10 9 11 18 10 6 8 11 1 3 2 5 5 5 6 8 7 8 9 13 16 13 10 13 15 11 9 8 3 21 8 4 4 6 3 3 4 4 5 4 5 7 6
13 9 18 2 4 3 3 3 4 4 4 6 4 7 2 5 8 8 8 8 8 8 9 9 9 9 10 11 14 15 14 18 16 13 13 9 6 20 6 4 6 3 3 3 5 6 5 7 6
12 3 17 9 6 2 -4 -1 5 4 9 9 3 7 8 12 9 9 8 9 8 7 7 7 7 8 9 8 8 11 15 15 15 18 15 15 15 2 20 10 4 7 2 4 2 6 6 5 4
14 16 10 10 0 6 3 9 4 5 10 9 6 10 10 7 7 6 4 3 3 4 5 6 7 7 7 7 7 5 4 5 10 12 14 21 14 14 1 23 4 8 6 5 2 3 6 6 4
11 16 11 9 1 9 0 5 4 7 9 7 12 9 8 7 4 3 4 6 7 7 8 9 12 13 13 12 13 12 11 10 7 5 6 11 14 18 25 12 23 12 -5 6 8 7 5 7 7
11 23 13 7 15 12 6 6 6 3 11 12 9 10 5 4 5 7 10 9 9 9 9 9 9 9 9 11 13 14 13 14 15 10 7 7 5 14 16 28 24 27 9 21 -8 5 6 6 5
24 17 13 7 3 2 6 10 8 13 10 6 5 4 6 7 9 8 8 7 6 6 7 8 8 7 7 7 7 9 9 12 14 15 17 7 5 4 10 11 18 32 17 2 28 -6 3 15 3
7 7 10 -0 4 9 11 12 7 9 10 5 6 5 7 7 8 7 7 6 5 5 5 4 4 6 6 7 7 8 8 9 10 13 16 16 13 7 5 7 10 15 34 16 -5 28 -11 40 7
21 2 7 6 5 11 11 10 15 5 6 5 5 6 6 6 6 5 5 4 4 4 4 5 5 5 6 6 5 6 6 7 8 9 12 15 15 13 9 5 7 9 14 31 10 19 21 11 11
1 5 5 1 4 4 15 13 9 5 4 5 3 5 6 6 5 5 5 5 4 5 4 4 4 5 6 6 6 7 8 8 7 9 10 12 15 11 16 10 5 9 8 15 32 16 51 -51 41
4 -3 -0 -0 1 5 1 8 5 2 0 3 4 5 5 5 4 4 4 4 4 4 4 4 5 5 5 6 6 6 7 8 9 10 11 11 14 16 8 13 10 10 9 11 16 18 11 -12 -43
12 2 -11 -5 -0 5 17 7 3 5 2 3 3 4 4 4 4 4 5 5 5 5 5 6 5 6 6 6 6 7 8 7 9 11 13 13 14 16 14 10 12 13 11 12 15 16 22 18 35
-8 7 23 -2 4 10 10 6 5 2 1 1 1 1 4 5 5 6 5 5 5 5 6 5 4 5 6 6 6 7 8 9 10 13 14 15 17 17 15 13 14 13 14 13 16 19 10 23 25
14 9 5 5 7 12 7 3 3 2 1 1 1 0 2 7 6 6 6 6 6 6 4 5 6 6 6 6 6 7 8 11 12 14 15 16 14 19 18 15 14 13 13 14 18 17 17 26 15
8 14 9 5 12 2 1 2 3 2 1 2 2 1 -0 6 7 6 6 7 5 3 4 4 6 5 5 5 7 9 11 12 14 15 15 14 14 17 20 19 17 15 14 15 16 17 17 20 33
11 11 6 7 2 -1 -1 0 2 1 1 1 2 2 -0 4 7 6 6 6 4 2 3 5 5 4 5 6 9 10 10 13 14 13 12 14 17 17 18 17 17 15 14 13 14 15 18 16 22
21 7 8 8 4 4 7 14 3 1 2 2 3 3 -0 4 7 7 7 6 3 2 3 4 5 5 5 7 10 9 11 13 12 12 12 14 15 17 19 17 18 15 14 12 12 16 16 18 21
16 6 6 26 6 4 1 2 17 3 2 4 3 3 -0 1 8 8 8 5 3 4 4 5 4 5 5 8 9 11 12 13 12 11 14 13 13 14 17 18 18 15 14 12 11 14 13 17 24
8 12 15 6 -5 7 12 5 13 14 7 3 3 3 0 -2 8 10 8 6 3 4 5 5 4 5 6 9 9 10 12 12 10 10 13 13 13 14 17 18 17 15 13 13 10 12 12 13 19
29 7 5 4 2 16 23 -7 20 16 10 6 4 3 2 -0 8 11 9 5 4 5 6 5 4 5 7 8 10 10 11 11 10 11 13 13 12 12 15 17 17 14 11 12 10 11 11 11 17
0 0 11 6 12 -4 15 15 -8 -8 4 3 5 4 2 -0 8 11 10 4 6 6 6 6 4 6 8 8 9 9 11 11 10 11 12 12 12 11 13 16 17 16 14 12 11 10 11 9 13
-5 -4 4 9 7 3 16 13 12 14 10 6 6 6 4 2 8 14 5 6 7 6 6 6 5 8 8 6 9 8 10 12 10 11 12 12 12 11 11 14 18 17 15 13 12 10 12 9 10
22 2 -12 4 8 15 7 16 10 15 8 10 7 8 6 4 9 15 4 5 5 5 6 7 6 8 8 6 8 8 10 12 12 10 12 13 11 10 10 12 16 19 17 14 13 11 11 10 8
1 18 12 10 4 8 18 14 3 9 8 10 11 7 5 6 14 7 5 5 4 4 7 8 6 8 8 6 8 8 10 12 12 11 11 13 11 10 9 10 14 17 18 15 14 13 11 10 9
-1 6 -2 9 1 8 3 18 -1 13 9 10 9 6 5 7 17 3 3 4 4 4 7 8 7 8 7 6 7 10 10 12 14 13 11 14 11 11 10 9 11 15 18 16 15 14 12 10 9
11 -1 -4 -4 18 3 1 11 13 2 8 11 8 6 8 15 12 3 4 5 4 4 7 9 8 8 7 6 8 9 10 11 14 14 12 12 12 10 11 10 11 14 17 18 17 16 13 9 9
Height
3168 3167 3167 3168 3173 3170 3172 3178 3180 3182 3184 3183 3184 3185 3185 3184 3183 3188 3182 3179 3178 3176 3173 3171 3170 3167 3165 3164 3162 3162 3162 3161 3160 3160 3160 3159 3158 3157 3156 3154 3153 3155 3156 3156 3155 3156 3156 3156 3157
3168 3168 3169 3168 3170 3170 3177 3178 3179 3181 3183 3184 3185 3185 3185 3184 3184 3183 3182 3179 3177 3174 3171 3169 3167 3165 3163 3162 3160 3159 3158 3157 3156 3155 3154 3154 3153 3152 3150 3150 3150 3149 3150 3152 3153 3152 3153 3153 3154
3169 3169 3170 3169 3168 3171 3177 3179 3179 3180 3181 3182 3183 3183 3183 3181 3180 3180 3178 3175 3172 3170 3168 3166 3163 3161 3159 3157 3155 3154 3153 3151 3150 3149 3147 3146 3146 3145 3146 3145 3145 3145 3144 3146 3148 3149 3149 3150 3150
3168 3169 3169 3168 3169 3174 3177 3179 3180 3181 3182 3181 3182 3183 3182 3180 3180 3178 3176 3174 3171 3168 3165 3161 3158 3156 3154 3151 3149 3147 3145 3143 3142 3142 3141 3141 3140 3140 3140 3141 3142 3141 3140 3140 3141 3144 3146 3146 3147
3167 3167 3167 3169 3171 3174 3178 3180 3181 3181 3182 3182 3182 3181 3181 3180 3179 3178 3177 3174 3171 3167 3163 3159 3155 3151 3148 3145 3143 3141 3140 3138 3137 3135 3135 3134 3134 3133 3133 3134 3135 3135 3136 3135 3135 3136 3140 3142 3143
3165 3166 3167 3168 3170 3175 3178 3180 3182 3182 3182 3181 3182 3181 3181 3179 3178 3177 3174 3172 3168 3165 3161 3157 3153 3149 3145 3142 3139 3136 3134 3131 3129 3128 3126 3125 3125 3125 3124 3126 3126 3129 3129 3130 3131 3131 3132 3136 3137
3164 3166 3166 3169 3172 3175 3178 3180 3181 3181 3181 3180 3180 3180 3180 3179 3178 3176 3174 3172 3168 3164 3160 3156 3152 3147 3143 3140 3136 3133 3130 3127 3124 3121 3119 3117 3115 3115 3116 3116 3116 3118 3121 3122 3124 3125 3126 3127 3132
3164 3165 3166 3170 3172 3175 3177 3180 3180 3181 3180 3180 3179 3178 3178 3176 3175 3173 3172 3170 3167 3163 3159 3154 3150 3145 3141 3137 3133 3130 3126 3123 3120 3116 3113 3111 3109 3108 3108 3108 3108 3107 3109 3112 3115 3117 3119 3121 3123
3163 3164 3164 3167 3172 3174 3177 3179 3180 3179 3179 3178 3177 3177 3176 3174 3174 3173 3172 3170 3166 3161 3156 3152 3147 3143 3138 3133 3129 3125 3122 3118 3115 3112 3109 3106 3103 3100 3099 3098 3098 3100 3101 3104 3107 3109 3113 3115 3117
3162 3163 3165 3170 3172 3174 3176 3179 3179 3179 3178 3177 3177 3176 3175 3175 3175 3174 3172 3168 3164 3159 3154 3149 3144 3139 3135 3131 3126 3122 3117 3113 3109 3106 3103 3101 3097 3093 3091 3088 3088 3088 3090 3094 3097 3098 3104 3106 3108
3160 3162 3166 3169 3174 3176 3176 3177 3177 3177 3176 3176 3177 3177 3178 3177 3175 3172 3168 3164 3159 3154 3150 3146 3141 3136 3131 3127 3122 3118 3113 3108 3104 3100 3097 3095 3091 3087 3084 3081 3079 3078 3080 3081 3086 3090 3087 3097 3099
3161 3165 3168 3170 3174 3175 3177 3177 3177 3177 3177 3176 3176 3175 3176 3175 3173 3170 3166 3162 3157 3153 3148 3144 3139 3135 3130 3125 3120 3114 3109 3104 3099 3095 3091 3087 3083 3081 3077 3073 3071 3069 3069 3072 3071 3074 3077 3076 3089
3163 3166 3169 3172 3174 3177 3177 3177 3177 3177 3177 3177 3176 3176 3175 3173 3171 3168 3164 3160 3157 3153 3149 3145 3140 3135 3129 3123 3118 3111 3105 3099 3093 3088 3084 3079 3075 3072 3070 3066 3063 3060 3059 3059 3060 3060 3062 3062 3077
3166 3168 3171 3174 3175 3175 3178 3177 3178 3178 3178 3179 3177 3175 3173 3172 3170 3166 3163 3159 3155 3151 3148 3143 3137 3132 3127 3121 3115 3108 3101 3095 3089 3082 3077 3072 3067 3063 3060 3058 3054 3051 3049 3049 3048 3047 3050 3054 3057
3167 3169 3173 3175 3175 3176 3177 3178 3178 3177 3176 3177 3176 3175 3173 3171 3168 3165 3161 3157 3154 3151 3146 3141 3136 3131 3126 3119 3112 3106 3099 3091 3084 3077 3070 3064 3059 3055 3050 3048 3045 3042 3040 3039 3039 3038 3035 3039 3042
3168 3172 3173 3175 3176 3176 3177 3177 3176 3176 3177 3177 3176 3173 3171 3169 3166 3164 3160 3158 3154 3151 3146 3142 3137 3131 3124 3118 3110 3103 3095 3087 3079 3070 3062 3056 3051 3046 3042 3038 3035 3033 3032 3031 3030 3030 3030 3034 3038
3170 3172 3173 3176 3177 3178 3178 3176 3176 3175 3176 3176 3174 3172 3170 3168 3165 3164 3160 3157 3153 3149 3145 3140 3134 3128 3121 3115 3107 3100 3091 3082 3073 3064 3056 3048 3043 3038 3033 3030 3026 3024 3023 3023 3022 3022 3022 3023 3026
3168 3170 3173 3175 3178 3177 3177 3177 3176 3175 3175 3175 3173 3171 3170 3168 3166 3163 3160 3157 3153 3149 3144 3139 3132 3126 3118 3110 3103 3096 3087 3077 3066 3057 3049 3042 3036 3031 3026 3022 3019 3017 3015 3015 3015 3014 3013 3015 3019
3169 3170 3173 3175 3176 3178 3177 3177 3176 3175 3174 3173 3173 3171 3169 3168 3166 3163 3160 3156 3151 3147 3143 3137 3130 3122 3114 3105 3098 3092 3082 3071 3063 3054 3045 3037 3030 3024 3019 3015 3013 3010 3008 3007 3008 3007 3006 3005 3008
3169 3170 3172 3175 3176 3178 3177 3175 3175 3174 3173 3173 3172 3170 3170 3169 3165 3162 3158 3154 3149 3146 3141 3135 3128 3119 3110 3103 3097 3087 3077 3068 3059 3051 3043 3033 3026 3019 3013 3009 3007 3005 3003 3002 3001 3001 3001 3000 3000
3169 3171 3172 3173 3174 3176 3177 3174 3172 3172 3171 3170 3170 3170 3169 3167 3163 3160 3157 3154 3149 3145 3139 3132 3124 3115 3108 3102 3094 3086 3076 3067 3056 3048 3040 3031 3023 3015 3009 3005 3002 3001 2999 2998 2997 2997 2996 2996 2994
3170 3173 3173 3173 3175 3176 3175 3173 3169 3169 3168 3168 3169 3169 3167 3164 3161 3158 3156 3152 3149 3143 3136 3129 3121 3114 3106 3100 3091 3080 3070 3061 3053 3045 3037 3029 3021 3013 3007 3002 2999 2997 2996 2994 2994 2993 2994 2994 2992
3170 3172 3174 3175 3176 3176 3174 3175 3165 3163 3163 3165 3166 3166 3164 3162 3160 3157 3155 3150 3146 3139 3134 3127 3120 3112 3106 3098 3087 3077 3069 3060 3052 3044 3036 3028 3020 3012 3005 2999 2995 2994 2993 2992 2991 2990 2991 2993 2993
3169 3171 3174 3176 3176 3174 3171 3174 3162 3161 3163 3163 3163 3163 3162 3161 3158 3156 3153 3148 3143 3137 3131 3125 3118 3110 3105 3096 3085 3075 3066 3058 3051 3044 3035 3027 3019 3011 3005 2999 2994 2991 2989 2989 2988 2988 2988 2990 2991
3168 3171 3175 3180 3179 3175 3170 3171 3160 3160 3160 3161 3161 3160 3160 3158 3156 3153 3151 3147 3141 3135 3129 3122 3115 3110 3103 3092 3083 3074 3066 3058 3050 3042 3033 3025 3018 3010 3004 2997 2992 2989 2987 2987 2986 2985 2986 2987 2988
3167 3170 3170 3180 3178 3172 3169 3164 3159 3158 3158 3158 3158 3158 3157 3155 3152 3150 3147 3143 3138 3132 3126 3120 3114 3109 3099 3089 3082 3073 3066 3058 3049 3041 3033 3025 3017 3010 3003 2997 2992 2987 2985 2984 2983 2983 2983 2983 2984
3165 3167 3171 3169 3168 3170 3165 3160 3157 3155 3155 3155 3155 3155 3154 3152 3150 3148 3145 3140 3135 3130 3124 3119 3113 3106 3097 3088 3081 3073 3065 3057 3049 3041 3033 3025 3017 3010 3003 2998 2992 2987 2983 2981 2981 2980 2980 2980 2980
3161 3166 3169 3168 3169 3176 3162 3158 3151 3153 3153 3153 3152 3152 3150 3148 3147 3146 3142 3137 3133 3128 3123 3117 3111 3103 3095 3088 3081 3072 3064 3056 3048 3040 3033 3025 3018 3011 3004 2998 2992 2987 2983 2980 2979 2978 2978 2978 2977
3158 3160 3164 3164 3163 3167 3172 3154 3152 3152 3152 3151 3150 3149 3147 3146 3146 3143 3139 3136 3131 3126 3121 3115 3109 3102 3094 3088 3080 3072 3063 3055 3047 3039 3032 3025 3018 3011 3004 2998 2992 2987 2983 2979 2977 2976 2976 2976 2976
3155 3158 3159 3158 3162 3162 3161 3153 3150 3150 3149 3148 3147 3146 3145 3145 3144 3141 3138 3134 3129 3124 3119 3114 3107 3100 3094 3087 3080 3071 3063 3054 3046 3038 3032 3024 3018 3011 3005 2999 2993 2988 2983 2979 2976 2975 2975 2974 2974